TimePST,TemperatureF,Dew PointF,Humidity,Sea Level PressureIn,VisibilityMPH,Wind Direction,Wind SpeedMPH,Gust SpeedMPH,PrecipitationIn,Events,Conditions,WindDirDegrees,DateUTC
12:08 AM,28.0,26.1,92,30.03,4.0,Calm,Calm,-,0.00,,Overcast,0,2014-01-08 08:08:00
12:15 AM,28.0,25.0,88,30.03,2.5,NE,4.6,-,0.00,,Overcast,40,2014-01-08 08:15:00
12:29 AM,28.0,26.1,92,30.03,1.8,Calm,Calm,-,0.00,Snow,Light Snow,0,2014-01-08 08:29:00
12:39 AM,28.0,26.1,92,30.03,2.0,Calm,Calm,-,0.01,,Overcast,0,2014-01-08 08:39:00
12:53 AM,27.0,26.1,96,30.03,2.0,Calm,Calm,-,0.01,,Overcast,0,2014-01-08 08:53:00
1:15 AM,28.0,25.0,88,30.02,1.8,Calm,Calm,-,0.00,,Overcast,0,2014-01-08 09:15:00
1:36 AM,28.0,26.1,92,30.03,2.0,Calm,Calm,-,0.01,,Overcast,0,2014-01-08 09:36:00
1:45 AM,28.0,26.1,92,30.03,1.5,NE,3.5,-,0.01,,Overcast,40,2014-01-08 09:45:00
1:53 AM,28.0,26.1,92,30.03,1.8,NE,3.5,-,0.01,,Overcast,50,2014-01-08 09:53:00
2:04 AM,28.0,25.0,88,30.03,2.5,NE,4.6,-,N/A,,Overcast,50,2014-01-08 10:04:00
2:20 AM,28.0,25.0,88,30.03,1.8,ENE,3.5,-,0.00,Snow,Light Snow,60,2014-01-08 10:20:00
2:26 AM,28.0,25.0,88,30.03,2.5,ENE,3.5,-,0.00,,Overcast,70,2014-01-08 10:26:00
2:34 AM,28.0,26.1,92,30.04,4.0,Calm,Calm,-,0.01,,Overcast,0,2014-01-08 10:34:00
2:41 AM,28.0,26.1,92,30.03,2.5,North,-9999.0,-,0.01,,Overcast,0,2014-01-08 10:41:00
2:51 AM,28.4,26.6,93,30.03,1.2,North,-9999.0,-,0.01,Snow,Light Snow,0,2014-01-08 10:51:00
2:52 AM,28.0,26.1,92,30.11,1.2,North,-9999.0,-,0.01,Snow,Light Snow,0,2014-01-08 10:52:00
3:01 AM,28.0,26.1,92,30.04,1.2,NE,3.5,-,0.00,Snow,Light Snow,40,2014-01-08 11:01:00
3:32 AM,28.0,26.1,92,30.03,3.0,Calm,Calm,-,0.01,Snow,Light Snow,0,2014-01-08 11:32:00
3:41 AM,28.0,26.1,92,30.03,4.0,Calm,Calm,-,0.01,,Overcast,0,2014-01-08 11:41:00
3:53 AM,28.0,25.0,88,30.11,6.0,Calm,Calm,-,0.01,,Overcast,0,2014-01-08 11:53:00
4:06 AM,28.0,26.1,92,30.03,6.0,Calm,Calm,-,N/A,,Overcast,0,2014-01-08 12:06:00
4:42 AM,28.0,26.1,92,30.03,1.8,Calm,Calm,-,0.00,Snow,Light Snow,0,2014-01-08 12:42:00
4:53 AM,28.0,26.1,92,30.09,1.5,Calm,Calm,-,0.00,Snow,Light Snow,0,2014-01-08 12:53:00
5:06 AM,28.0,26.1,92,30.02,3.0,Calm,Calm,-,0.00,Snow,Light Snow,0,2014-01-08 13:06:00
5:53 AM,28.0,26.1,92,30.09,1.8,Calm,Calm,-,0.00,Snow,Light Snow,0,2014-01-08 13:53:00
6:03 AM,28.0,26.1,92,30.01,1.8,Calm,Calm,-,0.00,Snow,Light Snow,0,2014-01-08 14:03:00
6:12 AM,28.0,26.1,92,30.01,2.5,Calm,Calm,-,0.00,Snow,Light Snow,0,2014-01-08 14:12:00
6:32 AM,28.0,26.1,92,30.00,4.0,Calm,Calm,-,0.00,,Overcast,0,2014-01-08 14:32:00
6:53 AM,27.0,26.1,96,30.08,5.0,Calm,Calm,-,0.00,,Overcast,0,2014-01-08 14:53:00
7:07 AM,28.0,26.1,92,30.01,6.0,Calm,Calm,-,N/A,,Overcast,0,2014-01-08 15:07:00
7:18 AM,28.0,26.1,92,30.01,6.0,Calm,Calm,-,N/A,,Overcast,0,2014-01-08 15:18:00
7:53 AM,27.0,25.0,92,30.09,9.0,Calm,Calm,-,N/A,,Overcast,0,2014-01-08 15:53:00
8:03 AM,27.0,25.0,92,30.01,8.0,Calm,Calm,-,N/A,,Overcast,0,2014-01-08 16:03:00
8:26 AM,28.0,26.1,92,30.02,5.0,Calm,Calm,-,N/A,,Overcast,0,2014-01-08 16:26:00
8:41 AM,28.0,26.1,92,30.02,4.0,Calm,Calm,-,N/A,,Overcast,0,2014-01-08 16:41:00
8:53 AM,28.0,26.1,92,30.08,4.0,Calm,Calm,-,N/A,,Overcast,0,2014-01-08 16:53:00
9:00 AM,28.0,26.1,92,30.01,2.5,SE,3.5,-,N/A,,Overcast,130,2014-01-08 17:00:00
9:53 AM,28.9,28.0,96,30.08,2.5,Calm,Calm,-,N/A,,Overcast,0,2014-01-08 17:53:00
10:17 AM,28.9,27.0,92,30.01,3.0,Calm,Calm,-,N/A,,Overcast,0,2014-01-08 18:17:00
10:43 AM,28.9,28.0,96,30.00,2.5,Calm,Calm,-,N/A,,Overcast,0,2014-01-08 18:43:00
10:53 AM,28.9,28.0,96,30.07,2.5,Calm,Calm,-,N/A,,Overcast,0,2014-01-08 18:53:00
11:04 AM,28.9,28.0,96,29.99,1.0,Calm,Calm,-,N/A,,Overcast,0,2014-01-08 19:04:00
11:27 AM,30.0,28.0,92,29.98,2.5,Calm,Calm,-,N/A,,Overcast,0,2014-01-08 19:27:00
11:37 AM,30.0,28.9,96,29.97,1.2,Calm,Calm,-,N/A,,Overcast,0,2014-01-08 19:37:00
11:50 AM,30.2,28.4,93,29.97,0.8,Calm,Calm,-,N/A,,Overcast,0,2014-01-08 19:50:00
11:53 AM,30.0,28.9,96,30.03,0.5,Calm,Calm,-,N/A,Fog,Light Freezing Fog,0,2014-01-08 19:53:00
12:53 PM,30.9,28.9,92,30.00,0.2,North,4.6,-,N/A,Fog,Light Freezing Fog,350,2014-01-08 20:53:00
1:53 PM,30.9,28.9,92,29.97,1.0,NE,5.8,-,N/A,,Overcast,50,2014-01-08 21:53:00
2:12 PM,30.9,28.9,92,29.90,0.8,NE,5.8,-,0.00,Snow,Light Snow,50,2014-01-08 22:12:00
2:27 PM,30.9,30.0,96,29.89,1.2,NE,4.6,-,0.01,Snow,Light Snow,50,2014-01-08 22:27:00
2:36 PM,30.9,28.9,92,29.89,3.0,NE,3.5,-,0.01,Snow,Light Snow,40,2014-01-08 22:36:00
2:42 PM,30.9,28.9,92,29.89,1.8,NNE,4.6,-,0.01,Snow,Light Snow,30,2014-01-08 22:42:00
2:53 PM,30.9,30.0,96,29.95,1.0,NNE,4.6,-,0.02,Snow,Light Snow,30,2014-01-08 22:53:00
3:24 PM,30.9,28.9,92,29.88,1.0,NNE,3.5,-,0.02,Snow,Light Snow,20,2014-01-08 23:24:00
3:31 PM,30.9,30.0,96,29.87,0.8,Calm,Calm,-,0.02,Snow,Light Snow,0,2014-01-08 23:31:00
3:53 PM,30.9,30.0,96,29.93,0.8,Calm,Calm,-,0.04,Snow,Light Snow,0,2014-01-08 23:53:00
4:16 PM,30.9,28.9,92,29.85,1.0,NNE,3.5,-,0.01,Snow,Light Snow,30,2014-01-09 00:16:00
4:53 PM,30.9,28.9,92,29.89,2.0,NE,4.6,-,0.03,Snow,Light Snow,40,2014-01-09 00:53:00
5:17 PM,30.9,28.9,92,29.82,3.0,NNE,4.6,-,0.02,Snow,Light Snow,30,2014-01-09 01:17:00
5:45 PM,32.0,30.0,92,29.79,5.0,Calm,Calm,-,0.04,Rain,Light Freezing Rain,0,2014-01-09 01:45:00
5:53 PM,32.0,30.0,92,29.86,5.0,NNE,3.5,-,0.05,Rain,Light Freezing Rain,30,2014-01-09 01:53:00
6:53 PM,32.0,30.9,96,29.83,6.0,NNW,3.5,-,0.04,Rain,Light Freezing Rain,330,2014-01-09 02:53:00
7:53 PM,32.0,30.9,96,29.79,5.0,NE,5.8,-,0.06,Rain,Light Freezing Rain,50,2014-01-09 03:53:00
8:00 PM,32.0,30.9,96,29.73,5.0,NE,6.9,-,0.00,,Overcast,50,2014-01-09 04:00:00
8:53 PM,33.1,32.0,96,29.77,3.0,Calm,Calm,-,0.03,,Overcast,0,2014-01-09 04:53:00
9:12 PM,33.1,32.0,96,29.70,2.0,East,3.5,-,0.02,,Overcast,80,2014-01-09 05:12:00
9:29 PM,33.1,32.0,96,29.69,3.0,Calm,Calm,-,0.05,Rain,Rain,0,2014-01-09 05:29:00
9:53 PM,33.1,30.9,92,29.74,3.0,Calm,Calm,-,0.08,Rain,Light Rain,0,2014-01-09 05:53:00
10:53 PM,33.1,32.0,96,29.74,5.0,Calm,Calm,-,0.02,,Overcast,0,2014-01-09 06:53:00
11:17 PM,33.1,30.9,92,29.68,8.0,Calm,Calm,-,N/A,,Overcast,0,2014-01-09 07:17:00
11:48 PM,33.8,33.8,100,29.68,9.0,South,3.5,-,N/A,,Overcast,170,2014-01-09 07:48:00
11:53 PM,33.1,33.1,100,29.74,8.0,South,3.5,-,N/A,,Overcast,170,2014-01-09 07:53:00